Погода в Атамановке

Россия / Забайкальский край     51°39′41″N   114°24′42″E
темп.,
°C
ветер,
м/с
пор.,
м/с
влажн.,
%
обл.,
%
осадки,
мм/ч
давл.,
гПа
погр.,
м
5 декабря, вс
вс500:00−11з2289100 0.0 101328
03:00−8з31180100 0.0 1012313
06:00−6зсз513755 0.0 1013344
09:00−7зсз5127778 0.0 1015316
12:00−4зсз715675 0.0 1016865
15:00−3зсз714635 0.0 10161254
18:00−6зсз815562 0.0 1019606
21:00−8зсз815653 0.0 1023666
6 декабря, пн
пн600:00−10зсз6137426 0.0 1026439
03:00−11зсз48815 0.0 1027184
06:00−14зюз22925 0.0 102839
09:00−15зюз12955 0.0 102729
12:00−9юз23775 0.0 1024153
15:00−4зюз410623 0.0 1019492
18:00−10зюз23845 0.0 102129
21:00−12з22885 0.0 102228
7 декабря, вт
вт700:00−12з22875 0.0 102332
03:00−12з228649 0.0 102330
06:00−12з22865 0.0 102433
09:00−13з228752 0.0 102611
12:00−6зюз226717 0.0 102571
15:00−4юз12695 0.0 102352
18:00−10зсз11815 0.0 102610
21:00−11ссз11822 0.0 102610
8 декабря, ср
ср800:00−12св11865 0.0 10269
03:00−14св119174 0.0 10269
06:00−15всв119516 0.0 102410
09:00−15всв119645 0.0 102311
12:00−11вюв1181100 0.0 1020103
15:00−9ююв0179100 0.0 101771
18:00−12зсз1192100 0.0 101810
21:00−11зюз1190100 0.0 101821
9 декабря, чт
чт900:00−11з238956 0.0 102049
03:00−12зсз378810 0.0 1022177
06:00−10зсз715640 0.0 1024524
09:00−12зсз715660 0.0 1027473
12:00−11зсз612640 0.0 1030605
15:00−9зсз510580 0.0 1030655
18:00−15з22845 0.0 103422
21:00−17з22905 0.0 103718